FW5169 Weather Reports


time (UTC)temp
C
wind
direction
speed
KPH
gust
KPH
rain 1hr
cm
rain 24hr
cm
rain mn
cm
humidity
%
barometer
mb
20260504050321 12 231 0.0 0.0 0.03 0.03 0.00 78 1008.6
20260504044825 12 231 0.0 0.0 0.00 0.00 0.00 76 1008.8
20260504043335 13 231 0.0 0.0 0.00 0.00 0.00 74 1008.9
20260504041819 13 231 0.0 0.0 0.00 0.00 0.00 73 1008.9
20260504040327 13 231 0.0 4.8 0.00 0.00 0.00 73 1008.9
20260504034834 13 212 0.0 0.0 0.00 0.00 0.00 73 1009.0
20260504033321 13 220 0.0 1.6 0.00 0.00 0.00 73 1009.2
20260504031826 13 220 0.0 3.2 0.00 0.00 0.00 73 1009.3
20260504030334 14 233 0.0 3.2 0.00 0.00 0.00 72 1009.2
20260504024837 13 233 0.0 0.0 0.00 0.00 0.00 73 1009.2
20260504023318 14 233 0.0 0.0 0.00 0.00 0.00 72 1009.2
20260504021826 15 234 0.0 0.0 0.00 0.00 0.00 68 1009.2
20260504020351 16 233 0.0 3.2 0.00 0.00 0.00 66 1009.0
20260504014835 16 217 0.0 3.2 0.00 0.00 0.00 64 1009.0
20260504013325 17 233 1.6 8.0 0.00 0.00 0.00 61 1008.9
20260504011827 17 250 1.6 6.4 0.00 0.00 0.00 60 1008.7
20260504010333 18 237 1.6 8.0 0.00 0.00 0.00 58 1008.7
20260504004818 18 245 3.2 14.5 0.00 0.00 0.00 56 1008.7
20260504003323 19 264 4.8 11.3 0.00 0.00 0.00 55 1008.7
20260504001848 20 151 3.2 16.1 0.00 0.00 0.00 54 1008.8
20260504000334 20 246 6.4 9.7 0.00 0.00 0.00 53 1008.6
20260503234822 20 248 4.8 16.1 0.00 0.00 0.00 54 1008.8
20260503233327 20 267 6.4 17.7 0.00 0.00 0.00 54 1008.8